Telluride, CO

3:55 AM MST on December 03, 2016 (GMT -0700)
Telluride Regional

Weather History for KTEX - July, 2012

Change the Weather History Date:

Sunday, July 1, 2012

  Actual Average Record
Temperature  
Mean Temperature 68 °F -  
Max Temperature 80 °F 72 °F 84 °F (2002)
Min Temperature 55 °F 47 °F 39 °F (2004)
Cooling Degree Days 2    
Growing Degree Days 18 (Base 50)    
Moisture  
Dew Point 29 °F    
Average Humidity 26    
Maximum Humidity 49    
Minimum Humidity 11    
Precipitation  
Precipitation 0.03 in - - ()
Sea Level Pressure  
Sea Level Pressure 30.32 in    
Wind  
Wind Speed 6 mph (ESE)    
Max Wind Speed 20 mph    
Max Gust Speed 28 mph    
Visibility 10 miles    
Events Rain    
Averages and records for this station are not official NWS values.
T = Trace of Precipitation, MM = Missing Value Source: NWS Daily Summary

Daily Weather History Graph

Daily Weather History Graph

Search for Another Location

Airport or City:

Trip Planner

Search our weather history database for the weather conditions in past years. The results will help you decide how hot, cold, wet, or windy it might be!

Date:

Astronomy

Jul. 01, 2012 Rise Set
Actual Time 5:53 AM MDT 8:37 PM MDT
Civil Twilight 5:21 AM MDT 9:09 PM MDT
Nautical Twilight 4:42 AM MDT 9:48 PM MDT
Astronomical Twilight 3:58 AM MDT 10:32 PM MDT
Moon 6:44 PM MDT (7/1) 3:42 AM MDT (7/1)
Length of Visible Light 15h 47m
Length of Day
14h 44m
Waxing Gibbous, 94% of the Moon is Illuminated
Jul 1
Waxing Gibbous
Jul 3
Full
Jul 10
Last Quarter
Jul 18
New
Jul 26
First Quarter

Hourly Weather History & Observations

Time (MDT) Temp. Dew Point Humidity Pressure Visibility Wind Dir Wind Speed Gust Speed Precip Events Conditions
12:15 AM 60.8 °F 28.4 °F 29% 30.34 in 10.0 mi ESE 8.1 mph - N/A   Clear
12:35 AM 59.0 °F 28.4 °F 31% 30.34 in 10.0 mi ESE 6.9 mph - N/A   Clear
12:55 AM 59.0 °F 28.4 °F 31% 30.33 in 10.0 mi SE 6.9 mph - N/A   Clear
1:15 AM 59.0 °F 28.4 °F 31% 30.33 in 10.0 mi SE 3.5 mph - N/A   Clear
1:35 AM 59.0 °F 28.4 °F 31% 30.32 in 10.0 mi SE 6.9 mph - N/A   Clear
1:55 AM 59.0 °F 28.4 °F 31% 30.32 in 10.0 mi SE 8.1 mph - N/A   Clear
2:15 AM 57.2 °F 28.4 °F 33% 30.32 in 10.0 mi East 6.9 mph - N/A   Clear
2:35 AM 59.0 °F 26.6 °F 29% 30.32 in 10.0 mi ESE 4.6 mph - N/A   Clear
2:55 AM 57.2 °F 28.4 °F 33% 30.32 in 10.0 mi Calm Calm - N/A   Clear
3:15 AM 57.2 °F 28.4 °F 33% 30.31 in 10.0 mi SE 5.8 mph - N/A   Clear
3:35 AM 55.4 °F 26.6 °F 33% 30.31 in 10.0 mi ESE 8.1 mph - N/A   Clear
4:15 AM 55.4 °F 26.6 °F 33% 30.31 in 10.0 mi East 3.5 mph - N/A   Clear
4:35 AM 55.4 °F 26.6 °F 33% 30.31 in 10.0 mi ESE 5.8 mph - N/A   Clear
5:15 AM 57.2 °F 26.6 °F 31% 30.31 in 10.0 mi ESE 5.8 mph - N/A   Clear
5:35 AM 55.4 °F 26.6 °F 33% 30.32 in 10.0 mi ESE 6.9 mph - N/A   Clear
6:15 AM 55.4 °F 26.6 °F 33% 30.32 in 10.0 mi SE 6.9 mph - N/A   Clear
6:35 AM 55.4 °F 26.6 °F 33% 30.33 in 10.0 mi SE 8.1 mph - N/A   Clear
6:55 AM 55.4 °F 26.6 °F 33% 30.33 in 10.0 mi ESE 6.9 mph - N/A   Clear
7:15 AM 59.0 °F 26.6 °F 29% 30.34 in 10.0 mi ESE 5.8 mph - N/A   Clear
7:35 AM 60.8 °F 26.6 °F 27% 30.34 in 10.0 mi ESE 8.1 mph - N/A   Clear
7:55 AM 62.6 °F 26.6 °F 26% 30.34 in 10.0 mi ESE 5.8 mph - N/A   Clear
8:15 AM 62.6 °F 26.6 °F 26% 30.35 in 10.0 mi ESE 4.6 mph - N/A   Clear
8:35 AM 68.0 °F 30.2 °F 24% 30.36 in 10.0 mi Calm Calm - N/A   Clear
9:15 AM 71.6 °F 28.4 °F 20% 30.35 in 10.0 mi Calm Calm - N/A   Clear
9:35 AM 73.4 °F 26.6 °F 18% 30.34 in 10.0 mi Calm Calm - N/A   Clear
9:55 AM 77.0 °F 19.4 °F 12% 30.34 in 10.0 mi Calm Calm - N/A   Clear
10:15 AM 78.8 °F 19.4 °F 11% 30.34 in 10.0 mi Calm Calm - N/A   Clear
10:55 AM 77.0 °F 21.2 °F 12% 30.34 in 10.0 mi WSW 8.1 mph 12.7 mph N/A   Mostly Cloudy
11:15 AM 77.0 °F 23.0 °F 13% 30.34 in 10.0 mi SW 6.9 mph - N/A   Scattered Clouds
11:35 AM 78.8 °F 23.0 °F 13% 30.34 in 10.0 mi West 3.5 mph - N/A   Mostly Cloudy
11:55 AM 77.0 °F 23.0 °F 13% 30.34 in 10.0 mi SW 10.4 mph 20.7 mph N/A   Mostly Cloudy
12:15 PM 80.6 °F 24.8 °F 13% 30.34 in 10.0 mi West 8.1 mph - N/A   Scattered Clouds
12:35 PM 78.8 °F 23.0 °F 13% 30.33 in 10.0 mi WSW 4.6 mph - N/A   Mostly Cloudy
1:15 PM 80.6 °F 26.6 °F 14% 30.32 in 10.0 mi South 11.5 mph 18.4 mph N/A   Scattered Clouds
1:35 PM 78.8 °F 26.6 °F 15% 30.32 in 10.0 mi SSW 8.1 mph - N/A   Scattered Clouds
1:55 PM 77.0 °F 26.6 °F 16% 30.32 in 10.0 mi ESE 11.5 mph 17.3 mph N/A   Mostly Cloudy
2:15 PM 78.8 °F 28.4 °F 16% 30.32 in 10.0 mi ESE 11.5 mph 16.1 mph N/A   Mostly Cloudy
2:35 PM 80.6 °F 28.4 °F 15% 30.30 in 10.0 mi ENE 3.5 mph - N/A   Scattered Clouds
2:55 PM 78.8 °F 26.6 °F 15% 30.30 in 10.0 mi ESE 8.1 mph - N/A   Mostly Cloudy
3:15 PM 78.8 °F 28.4 °F 16% 30.30 in 10.0 mi SE 15.0 mph 19.6 mph N/A   Mostly Cloudy
3:35 PM 78.8 °F 26.6 °F 15% 30.30 in 10.0 mi SE 8.1 mph - N/A   Mostly Cloudy
4:15 PM 77.0 °F 30.2 °F 18% 30.29 in 10.0 mi ENE 6.9 mph - N/A   Mostly Cloudy
4:35 PM 73.4 °F 32.0 °F 22% 30.30 in 10.0 mi NE 4.6 mph - N/A Rain Light Rain
4:55 PM 66.2 °F 39.2 °F 37% 30.29 in 7.0 mi NNE 8.1 mph 24.2 mph 0.01 in Rain Light Rain
5:15 PM 64.4 °F 44.6 °F 49% 30.29 in 10.0 mi NNE 3.5 mph - 0.01 in Rain Rain
5:35 PM 68.0 °F 39.2 °F 35% 30.29 in 10.0 mi SE 3.5 mph - 0.02 in Rain Light Rain
5:55 PM 69.8 °F 35.6 °F 28% 30.29 in 10.0 mi East 19.6 mph 27.6 mph 0.02 in Rain Light Rain
6:15 PM 71.6 °F 35.6 °F 27% 30.29 in 10.0 mi East 4.6 mph - N/A Rain Light Rain
6:35 PM 71.6 °F 33.8 °F 25% 30.30 in 10.0 mi East 8.1 mph - N/A   Mostly Cloudy
6:55 PM 71.6 °F 35.6 °F 27% 30.30 in 10.0 mi ESE 6.9 mph - N/A Rain Light Rain
7:15 PM 71.6 °F 35.6 °F 27% 30.30 in 10.0 mi East 3.5 mph - N/A   Mostly Cloudy
7:35 PM 69.8 °F 35.6 °F 28% 30.30 in 10.0 mi SE 4.6 mph - N/A   Overcast
7:55 PM 69.8 °F 33.8 °F 27% 30.30 in 10.0 mi ENE 4.6 mph - N/A   Overcast
8:15 PM 69.8 °F 33.8 °F 27% 30.30 in 10.0 mi ENE 6.9 mph - N/A   Scattered Clouds
8:35 PM 69.8 °F 33.8 °F 27% 30.30 in 10.0 mi ENE 3.5 mph - N/A   Scattered Clouds
8:55 PM 68.0 °F 33.8 °F 28% 30.30 in 10.0 mi ESE 5.8 mph - N/A   Scattered Clouds
9:15 PM 68.0 °F 32.0 °F 26% 30.31 in 10.0 mi NNE 3.5 mph - N/A   Clear
9:35 PM 64.4 °F 33.8 °F 32% 30.32 in 10.0 mi Calm Calm - N/A   Clear
9:55 PM 66.2 °F 33.8 °F 30% 30.33 in 10.0 mi Calm Calm - N/A   Clear
10:15 PM 66.2 °F 33.8 °F 30% 30.33 in 10.0 mi Calm Calm - N/A   Clear
10:35 PM 64.4 °F 33.8 °F 32% 30.34 in 10.0 mi SE 3.5 mph - N/A   Clear
10:55 PM 62.6 °F 33.8 °F 34% 30.34 in 10.0 mi Calm Calm - N/A   Clear
11:15 PM 60.8 °F 33.8 °F 36% 30.34 in 10.0 mi NE 3.5 mph - N/A   Clear
11:35 PM 62.6 °F 32.0 °F 32% 30.34 in 10.0 mi ESE 3.5 mph - N/A   Clear
11:55 PM 60.8 °F 33.8 °F 36% 30.34 in 10.0 mi SE 8.1 mph - N/A   Clear